Regional Weather Roundup
Issued by NWS Green Bay, WI

Home | Current Version | Previous Version | Graphics & Text | Print | Product List | Glossary Off
Versions: 1 2 3 4 5 6 7 8 9 10 11 12 13 14 15 16 17 18 19 20 21 22 23 24 25 26 27 28 29 30 31 32 33 34 35 36 37 38 39 40 41 42 43 44 45 46 47 48 49 50

000
ASUS43 KGRB 241559
RWRGRB

NORTH-CENTRAL AND NORTHEAST WISCONSIN REGIONAL WEATHER ROUNDUP
NATIONAL WEATHER SERVICE GREEN BAY WI
1100 AM CDT FRI OCT 24 2014

WIZ005-009-010>012-018-019-241700-
NORTH CENTRAL WISCONSIN

CITY           SKY/WX    TMP DP  RH WIND       PRES   REMARKS
IRONWOOD       CLOUDY    54  48  82 S6        29.88S
MANITOWISH WTR NOT AVBL
ARBOR VITAE    NOT AVBL
EAGLE RIVER    NOT AVBL
LAND O LAKES   NOT AVBL
RHINELANDER    CLOUDY    45  45 100 SW5       29.97S FOG
PHILLIPS       NOT AVBL
ANTIGO         NOT AVBL
TOMAHAWK       NOT AVBL
MERRILL        NOT AVBL
$$

WIZ013-073-241700-
NORTHEAST WISCONSIN

CITY           SKY/WX    TMP DP  RH WIND       PRES   REMARKS
IRON MOUNTAIN  CLOUDY    45  43  93 CALM      29.97S
MARINETTE      CLOUDY    46  45  93 SW6       29.99F
$$

WIZ017-030-035>037-045-241700-
CENTRAL WISCONSIN

CITY           SKY/WX    TMP DP  RH WIND       PRES   REMARKS
MEDFORD        NOT AVBL
WAUSAU         FOG       45  45 100 S6        29.98S VSB 3/4
MOSINEE        FOG       45  45 100 S8        30.00F VSB 1/8
MARSHFIELD     FOG       47  46  97 S5        29.99F VSB 3/4
WISC RAPIDS    FOG       47  47 100 SW5       30.02S VSB 1
STEVENS POINT  NOT AVBL
WAUPACA        NOT AVBL
SHAWANO        NOT AVBL
CLINTONVILLE   NOT AVBL
$$

WIZ038-039-048-051-241700-
FOX VALLEY

CITY           SKY/WX    TMP DP  RH WIND       PRES   REMARKS
NWS GREEN BAY  CLOUDY    49  47  93 W8        30.02F FOG
APPLETON       FOG       48  46  93 S6        30.02S VSB 1/2
OSHKOSH        CLOUDY    50  48  93 S8        30.02S
FOND DU LAC    CLOUDY    50  47  89 S6        30.03F
$$

WIZ022-050-052-241700-
EAST CENTRAL WISCONSIN

CITY           SKY/WX    TMP DP  RH WIND       PRES   REMARKS
STURGEON BAY   CLOUDY    48  45  87 SW8       30.01F
MANITOWOC      NOT AVBL
SHEBOYGAN      CLOUDY    51  47  86 SW5       30.03F
$$

LMZ563-521-522-541>543-241700-
LAKESHORE

STATION/POSITION TIME  TEMP    WIND        PRES    VSBY  WAVE
                       AIR SEA DIR/SP/G                  HT/PER
                 (UTC) (F)     (DEG/KT/KT) (MB)    (MI)  (FT/S)
SHEBOYGAN LKSHOR 1500   50 50  290/  6/  7 1017.7S
KEWAUNEE LKSHORE 1500   50     260/  4/  7 1015.8S
ALGOMA MARINA    1500          270/ 10/ 13   N/A
TWO RIVERS CG    1500   49                 1016.5      6   0
NORTHPORT PIER   1500   50     220/  3/  6 1015.9S
N MID LAKE BUOY  1500   50 51  220/  8/ 10 1015.9F         2/ 5
SISTER BAY LKSHO 1500          250/  9/ 11   N/A
STURGEON BAY CG  1500   50 50  250/  4     1019.2      6   1
CHAMBERS ISLAND  1500   48     200/  4/  9 1016.3S
MENOMINEE LKSHOR 1500   47     210/  8/ 10 1016.7R
$$



USA.gov is the U.S. government's official web portal to all federal, state and local government web resources and services.